Time,TemperatureF,DewpointF,PressureIn,WindDirection,WindDirectionDegrees,WindSpeedMPH,WindSpeedGustMPH,Humidity,HourlyPrecipIn,Conditions,Clouds,dailyrainin,SoftwareType,DateUTC
2013-05-04 00:01:00,65.8,42.1,30.10,East,101,14.0,17.0,42,0.00,,BKN250,0.00,VWS V14.01,2013-05-04 04:01:00,
2013-05-04 00:06:00,65.6,41.9,30.10,SE,128,5.0,8.0,42,0.00,,BKN250,0.00,VWS V14.01,2013-05-04 04:06:00,
2013-05-04 00:11:00,65.5,42.4,30.10,SE,127,6.0,13.0,43,0.00,,BKN250,0.00,VWS V14.01,2013-05-04 04:11:00,
2013-05-04 00:16:00,65.3,42.2,30.10,ESE,113,10.0,12.0,43,0.00,,BKN250,0.00,VWS V14.01,2013-05-04 04:16:00,
2013-05-04 00:21:00,65.0,42.6,30.10,ESE,114,7.0,13.0,44,0.00,,BKN250,0.00,VWS V14.01,2013-05-04 04:21:00,
2013-05-04 00:26:00,64.9,43.1,30.10,SE,127,9.0,12.0,45,0.00,,BKN250,0.00,VWS V14.01,2013-05-04 04:26:00,
2013-05-04 00:31:00,64.6,42.8,30.10,ESE,107,8.0,10.0,45,0.00,,BKN250,0.00,VWS V14.01,2013-05-04 04:31:00,
2013-05-04 00:36:00,64.3,43.1,30.10,ESE,117,6.0,9.0,46,0.00,,BKN250,0.00,VWS V14.01,2013-05-04 04:36:00,
2013-05-04 00:41:00,64.0,43.4,30.10,SE,129,7.0,7.0,47,0.00,,BKN250,0.00,VWS V14.01,2013-05-04 04:41:00,
2013-05-04 00:46:00,63.7,43.7,30.10,East,79,6.0,7.0,48,0.00,,BKN250,0.00,VWS V14.01,2013-05-04 04:46:00,
2013-05-04 00:51:00,63.6,43.6,30.11,ESE,107,7.0,11.0,48,0.00,,BKN250,0.00,VWS V14.01,2013-05-04 04:51:00,
2013-05-04 00:56:00,63.3,43.3,30.10,ESE,118,6.0,8.0,48,0.00,,BKN250,0.00,VWS V14.01,2013-05-04 04:56:00,
2013-05-04 01:01:00,63.3,43.3,30.11,SE,129,9.0,11.0,48,0.00,,BKN250,0.00,VWS V14.01,2013-05-04 05:01:00,
2013-05-04 01:06:00,63.1,43.7,30.11,SE,139,5.0,7.0,49,0.00,,BKN250,0.00,VWS V14.01,2013-05-04 05:06:00,
2013-05-04 01:11:00,62.9,43.5,30.11,NE,56,5.0,10.0,49,0.00,,BKN250,0.00,VWS V14.01,2013-05-04 05:11:00,
2013-05-04 01:16:00,62.6,43.7,30.11,ESE,109,8.0,10.0,50,0.00,,BKN250,0.00,VWS V14.01,2013-05-04 05:16:00,
2013-05-04 01:21:00,62.5,44.2,30.11,ESE,104,7.0,7.0,51,0.00,,BKN250,0.00,VWS V14.01,2013-05-04 05:21:00,
2013-05-04 01:26:00,62.3,44.0,30.11,ESE,102,7.0,7.0,51,0.00,,BKN250,0.00,VWS V14.01,2013-05-04 05:26:00,
2013-05-04 01:31:00,62.2,43.3,30.11,ESE,122,10.0,13.0,50,0.00,,BKN250,0.00,VWS V14.01,2013-05-04 05:31:00,
2013-05-04 01:36:00,62.2,43.9,30.10,ESE,102,5.0,8.0,51,0.00,,BKN250,0.00,VWS V14.01,2013-05-04 05:36:00,
2013-05-04 01:41:00,61.9,43.6,30.10,East,101,7.0,9.0,51,0.00,,BKN250,0.00,VWS V14.01,2013-05-04 05:41:00,
2013-05-04 01:46:00,61.8,44.0,30.10,ESE,105,6.0,10.0,52,0.00,,BKN250,0.00,VWS V14.01,2013-05-04 05:46:00,
2013-05-04 01:51:00,61.5,43.7,30.10,East,99,6.0,9.0,52,0.00,,BKN250,0.00,VWS V14.01,2013-05-04 05:51:00,
2013-05-04 01:56:00,61.3,44.0,30.10,ESE,110,7.0,9.0,53,0.00,,BKN250,0.00,VWS V14.01,2013-05-04 05:56:00,
2013-05-04 02:01:00,61.0,43.8,30.10,East,89,4.0,9.0,53,0.00,,BKN250,0.00,VWS V14.01,2013-05-04 06:01:00,
2013-05-04 02:06:00,60.7,44.0,30.10,ESE,114,4.0,8.0,54,0.00,,BKN250,0.00,VWS V14.01,2013-05-04 06:06:00,
2013-05-04 02:11:00,60.6,43.9,30.10,East,82,7.0,10.0,54,0.00,,BKN250,0.00,VWS V14.01,2013-05-04 06:11:00,
2013-05-04 02:16:00,60.5,43.8,30.10,ESE,114,7.0,7.0,54,0.00,,BKN250,0.00,VWS V14.01,2013-05-04 06:16:00,
2013-05-04 02:21:00,60.4,43.7,30.10,ESE,108,5.0,8.0,54,0.00,,BKN250,0.00,VWS V14.01,2013-05-04 06:21:00,
2013-05-04 02:26:00,60.3,44.1,30.10,SE,133,6.0,8.0,55,0.00,,BKN250,0.00,VWS V14.01,2013-05-04 06:26:00,
2013-05-04 02:31:00,60.0,43.8,30.10,ESE,111,4.0,5.0,55,0.00,,BKN250,0.00,VWS V14.01,2013-05-04 06:31:00,
2013-05-04 02:36:00,59.9,43.7,30.10,ENE,69,4.0,8.0,55,0.00,,BKN250,0.00,VWS V14.01,2013-05-04 06:36:00,
2013-05-04 02:41:00,59.8,44.1,30.10,ESE,109,5.0,8.0,56,0.00,,BKN250,0.00,VWS V14.01,2013-05-04 06:41:00,
2013-05-04 02:46:00,59.5,44.3,30.10,ENE,75,2.0,6.0,57,0.00,,BKN250,0.00,VWS V14.01,2013-05-04 06:46:00,
2013-05-04 02:51:00,59.1,43.9,30.10,East,95,3.0,5.0,57,0.00,,BKN250,0.00,VWS V14.01,2013-05-04 06:51:00,
2013-05-04 02:56:00,58.8,44.1,30.10,ENE,77,2.0,5.0,58,0.00,,BKN250,0.00,VWS V14.01,2013-05-04 06:56:00,
2013-05-04 03:01:00,58.5,44.2,30.10,East,88,4.0,5.0,59,0.00,,BKN250,0.00,VWS V14.01,2013-05-04 07:01:00,
2013-05-04 03:06:00,58.4,44.1,30.10,East,83,4.0,5.0,59,0.00,,BKN250,0.00,VWS V14.01,2013-05-04 07:06:00,
2013-05-04 03:11:00,58.1,44.3,30.10,ENE,70,4.0,5.0,60,0.00,,BKN250,0.00,VWS V14.01,2013-05-04 07:11:00,
2013-05-04 03:16:00,58.0,44.2,30.10,ENE,78,4.0,5.0,60,0.00,,BKN250,0.00,VWS V14.01,2013-05-04 07:16:00,
2013-05-04 03:21:00,57.9,44.1,30.10,ENE,75,4.0,7.0,60,0.00,,BKN250,0.00,VWS V14.01,2013-05-04 07:21:00,
2013-05-04 03:26:00,57.8,44.5,30.09,ESE,107,2.0,5.0,61,0.00,,BKN250,0.00,VWS V14.01,2013-05-04 07:26:00,
2013-05-04 03:31:00,57.7,44.4,30.09,East,81,4.0,7.0,61,0.00,,BKN250,0.00,VWS V14.01,2013-05-04 07:31:00,
2013-05-04 03:36:00,57.5,44.2,30.09,ENE,72,5.0,7.0,61,0.00,,BKN250,0.00,VWS V14.01,2013-05-04 07:36:00,
2013-05-04 03:41:00,57.4,44.1,30.09,East,81,3.0,7.0,61,0.00,,BKN250,0.00,VWS V14.01,2013-05-04 07:41:00,
2013-05-04 03:46:00,57.2,44.3,30.10,ENE,60,3.0,6.0,62,0.00,,BKN250,0.00,VWS V14.01,2013-05-04 07:46:00,
2013-05-04 03:51:00,57.1,44.2,30.09,East,82,4.0,5.0,62,0.00,,BKN250,0.00,VWS V14.01,2013-05-04 07:51:00,
2013-05-04 03:56:00,57.1,44.2,30.09,ENE,71,8.0,8.0,62,0.00,,BKN250,0.00,VWS V14.01,2013-05-04 07:56:00,
2013-05-04 04:01:00,57.0,44.1,30.10,ENE,70,3.0,4.0,62,0.00,,BKN220,0.00,VWS V14.01,2013-05-04 08:01:00,
2013-05-04 04:06:00,56.8,44.3,30.09,ENE,66,1.0,4.0,63,0.00,,BKN220,0.00,VWS V14.01,2013-05-04 08:06:00,
2013-05-04 04:11:00,56.6,44.2,30.10,ENE,77,3.0,7.0,63,0.00,,BKN220,0.00,VWS V14.01,2013-05-04 08:11:00,
2013-05-04 04:16:00,56.6,44.2,30.10,ENE,68,2.0,3.0,63,0.00,,BKN220,0.00,VWS V14.01,2013-05-04 08:16:00,
2013-05-04 04:21:00,56.5,44.1,30.10,ENE,76,4.0,4.0,63,0.00,,BKN220,0.00,VWS V14.01,2013-05-04 08:21:00,
2013-05-04 04:26:00,56.4,44.0,30.10,ESE,122,1.0,2.0,63,0.00,,BKN220,0.00,VWS V14.01,2013-05-04 08:26:00,
2013-05-04 04:31:00,56.2,43.8,30.10,East,83,4.0,5.0,63,0.00,,BKN220,0.00,VWS V14.01,2013-05-04 08:31:00,
2013-05-04 04:36:00,56.1,44.1,30.10,ESE,115,3.0,3.0,64,0.00,,BKN220,0.00,VWS V14.01,2013-05-04 08:36:00,
2013-05-04 04:41:00,56.0,44.0,30.10,ENE,68,3.0,5.0,64,0.00,,BKN220,0.00,VWS V14.01,2013-05-04 08:41:00,
2013-05-04 04:46:00,55.8,43.8,30.10,East,84,5.0,5.0,64,0.00,,BKN220,0.00,VWS V14.01,2013-05-04 08:46:00,
2013-05-04 04:51:00,55.7,43.7,30.10,East,82,3.0,5.0,64,0.00,,BKN220,0.00,VWS V14.01,2013-05-04 08:51:00,
2013-05-04 04:56:00,55.6,43.6,30.10,ENE,65,4.0,6.0,64,0.00,,BKN220,0.00,VWS V14.01,2013-05-04 08:56:00,
2013-05-04 05:01:00,55.5,43.9,30.10,East,94,3.0,4.0,65,0.00,,SCT200,0.00,VWS V14.01,2013-05-04 09:01:00,
2013-05-04 05:06:00,55.2,43.7,30.10,ENE,70,2.0,4.0,65,0.00,,SCT200,0.00,VWS V14.01,2013-05-04 09:06:00,
2013-05-04 05:11:00,55.1,44.0,30.10,ENE,77,6.0,8.0,66,0.00,,SCT200,0.00,VWS V14.01,2013-05-04 09:11:00,
2013-05-04 05:16:00,55.1,43.6,30.10,East,94,4.0,7.0,65,0.00,,SCT200,0.00,VWS V14.01,2013-05-04 09:16:00,
2013-05-04 05:21:00,55.1,43.6,30.10,East,82,4.0,6.0,65,0.00,,SCT200,0.00,VWS V14.01,2013-05-04 09:21:00,
2013-05-04 05:26:00,54.9,43.8,30.10,ESE,105,5.0,6.0,66,0.00,,SCT200,0.00,VWS V14.01,2013-05-04 09:26:00,
2013-05-04 05:31:00,54.9,43.8,30.10,East,82,3.0,7.0,66,0.00,,SCT200,0.00,VWS V14.01,2013-05-04 09:31:00,
2013-05-04 05:36:00,55.0,43.5,30.10,ENE,76,6.0,7.0,65,0.00,,SCT200,0.00,VWS V14.01,2013-05-04 09:36:00,
2013-05-04 05:41:00,55.0,43.5,30.10,East,84,5.0,6.0,65,0.00,,SCT200,0.00,VWS V14.01,2013-05-04 09:41:00,
2013-05-04 05:46:00,55.1,43.6,30.10,East,99,5.0,7.0,65,0.00,,SCT200,0.00,VWS V14.01,2013-05-04 09:46:00,
2013-05-04 05:51:00,55.1,43.6,30.10,East,96,3.0,8.0,65,0.00,,SCT200,0.00,VWS V14.01,2013-05-04 09:51:00,
2013-05-04 05:56:00,55.0,43.5,30.10,East,93,6.0,8.0,65,0.00,,SCT200,0.00,VWS V14.01,2013-05-04 09:56:00,
2013-05-04 06:01:00,55.0,43.5,30.10,ESE,111,8.0,8.0,65,0.00,,OVC220,0.00,VWS V14.01,2013-05-04 10:01:00,
2013-05-04 06:06:00,55.0,43.1,30.10,ENE,76,5.0,9.0,64,0.00,,OVC220,0.00,VWS V14.01,2013-05-04 10:06:00,
2013-05-04 06:11:00,54.9,43.0,30.10,ENE,75,6.0,8.0,64,0.00,,OVC220,0.00,VWS V14.01,2013-05-04 10:11:00,
2013-05-04 06:16:00,54.9,42.6,30.11,East,84,5.0,10.0,63,0.00,,OVC220,0.00,VWS V14.01,2013-05-04 10:16:00,
2013-05-04 06:21:00,55.0,42.7,30.11,East,84,6.0,9.0,63,0.00,,OVC220,0.00,VWS V14.01,2013-05-04 10:21:00,
2013-05-04 06:26:00,55.0,42.2,30.11,ENE,74,7.0,9.0,62,0.00,,OVC220,0.00,VWS V14.01,2013-05-04 10:26:00,
2013-05-04 06:31:00,55.0,42.2,30.11,SE,124,9.0,10.0,62,0.00,,OVC220,0.00,VWS V14.01,2013-05-04 10:31:00,
2013-05-04 06:36:00,55.0,41.8,30.10,East,86,7.0,8.0,61,0.00,,OVC220,0.00,VWS V14.01,2013-05-04 10:36:00,
2013-05-04 06:41:00,54.9,41.7,30.11,ENE,69,4.0,7.0,61,0.00,,OVC220,0.00,VWS V14.01,2013-05-04 10:41:00,
2013-05-04 06:46:00,54.8,41.6,30.11,East,100,4.0,7.0,61,0.00,,OVC220,0.00,VWS V14.01,2013-05-04 10:46:00,
2013-05-04 06:50:00,54.7,42.0,30.11,East,93,5.0,5.0,62,0.00,,OVC220,0.00,VWS V14.01,2013-05-04 10:50:00,
2013-05-04 06:55:00,54.6,41.9,30.11,East,88,7.0,9.0,62,0.00,,OVC220,0.00,VWS V14.01,2013-05-04 10:55:00,
2013-05-04 07:00:00,54.5,41.8,30.11,East,93,3.0,6.0,62,0.00,,OVC250,0.00,VWS V14.01,2013-05-04 11:00:00,
2013-05-04 07:05:00,54.5,41.8,30.11,ESE,102,4.0,7.0,62,0.00,,OVC250,0.00,VWS V14.01,2013-05-04 11:05:00,
2013-05-04 07:10:00,54.6,41.9,30.11,East,94,4.0,11.0,62,0.00,,OVC250,0.00,VWS V14.01,2013-05-04 11:10:00,
2013-05-04 07:15:00,54.7,42.0,30.11,East,97,6.0,7.0,62,0.00,,OVC250,0.00,VWS V14.01,2013-05-04 11:15:00,
2013-05-04 07:20:00,54.8,41.6,30.11,SSE,162,6.0,7.0,61,0.00,,OVC250,0.00,VWS V14.01,2013-05-04 11:20:00,
2013-05-04 07:25:00,54.8,41.6,30.11,SSE,156,4.0,9.0,61,0.00,,OVC250,0.00,VWS V14.01,2013-05-04 11:25:00,
2013-05-04 07:30:00,54.8,41.6,30.11,ENE,69,7.0,10.0,61,0.00,,OVC250,0.00,VWS V14.01,2013-05-04 11:30:00,
2013-05-04 07:35:00,54.9,41.3,30.11,ESE,115,7.0,12.0,60,0.00,,OVC250,0.00,VWS V14.01,2013-05-04 11:35:00,
2013-05-04 07:40:00,55.1,41.5,30.12,ENE,76,8.0,9.0,60,0.00,,OVC250,0.00,VWS V14.01,2013-05-04 11:40:00,
2013-05-04 07:46:00,55.3,42.1,30.12,East,97,7.0,8.0,61,0.00,,OVC250,0.00,VWS V14.01,2013-05-04 11:46:00,
2013-05-04 07:51:00,55.4,41.8,30.12,SE,137,4.0,9.0,60,0.00,,OVC250,0.00,VWS V14.01,2013-05-04 11:51:00,
2013-05-04 07:56:00,55.7,42.0,30.12,ENE,76,9.0,13.0,60,0.00,,OVC250,0.00,VWS V14.01,2013-05-04 11:56:00,
2013-05-04 08:01:00,55.8,42.1,30.12,East,93,6.0,14.0,60,0.00,,OVC190,0.00,VWS V14.01,2013-05-04 12:01:00,
2013-05-04 08:06:00,56.0,42.3,30.12,East,86,6.0,14.0,60,0.00,,OVC190,0.00,VWS V14.01,2013-05-04 12:06:00,
2013-05-04 08:11:00,56.2,42.5,30.12,SE,124,4.0,13.0,60,0.00,,OVC190,0.00,VWS V14.01,2013-05-04 12:11:00,
2013-05-04 08:16:00,56.5,42.8,30.12,East,100,13.0,18.0,60,0.00,,OVC190,0.00,VWS V14.01,2013-05-04 12:16:00,
2013-05-04 08:22:00,56.7,42.1,30.12,ENE,76,13.0,13.0,58,0.00,,OVC190,0.00,VWS V14.01,2013-05-04 12:22:00,
2013-05-04 08:27:00,56.8,41.8,30.12,ESE,105,11.0,16.0,57,0.00,,OVC190,0.00,VWS V14.01,2013-05-04 12:27:00,
2013-05-04 08:32:00,57.2,41.7,30.12,East,86,13.0,16.0,56,0.00,,OVC190,0.00,VWS V14.01,2013-05-04 12:32:00,
2013-05-04 08:37:00,57.3,41.3,30.12,East,97,15.0,15.0,55,0.00,,OVC190,0.00,VWS V14.01,2013-05-04 12:37:00,
2013-05-04 08:42:00,57.3,40.8,30.12,NE,53,10.0,17.0,54,0.00,,OVC190,0.00,VWS V14.01,2013-05-04 12:42:00,
2013-05-04 08:47:00,57.1,40.2,30.12,SE,141,16.0,21.0,53,0.00,,OVC190,0.00,VWS V14.01,2013-05-04 12:47:00,
2013-05-04 08:52:00,56.9,40.4,30.12,ENE,77,7.0,15.0,54,0.00,,OVC190,0.00,VWS V14.01,2013-05-04 12:52:00,
2013-05-04 08:57:00,56.8,40.3,30.12,East,88,11.0,16.0,54,0.00,,OVC190,0.00,VWS V14.01,2013-05-04 12:57:00,
2013-05-04 09:02:00,56.8,40.3,30.12,East,101,10.0,14.0,54,0.00,,BKN200,0.00,VWS V14.01,2013-05-04 13:02:00,
2013-05-04 09:04:00,56.8,40.3,30.12,East,91,8.0,17.0,54,0.00,,BKN200,0.00,VWS V14.01,2013-05-04 13:04:00,
2013-05-04 09:09:00,57.1,40.6,30.12,East,94,14.0,16.0,54,0.00,,BKN200,0.00,VWS V14.01,2013-05-04 13:09:00,
2013-05-04 09:14:00,57.4,40.4,30.12,ESE,115,11.0,16.0,53,0.00,,BKN200,0.00,VWS V14.01,2013-05-04 13:14:00,
2013-05-04 09:19:00,57.5,41.0,30.12,ENE,78,9.0,14.0,54,0.00,,BKN200,0.00,VWS V14.01,2013-05-04 13:19:00,
2013-05-04 09:24:00,57.9,40.4,30.12,SE,129,10.0,14.0,52,0.00,,BKN200,0.00,VWS V14.01,2013-05-04 13:24:00,
2013-05-04 09:29:00,58.4,39.8,30.12,East,100,9.0,12.0,50,0.00,,BKN200,0.00,VWS V14.01,2013-05-04 13:29:00,
2013-05-04 09:34:00,58.7,38.5,30.12,ESE,103,9.0,14.0,47,0.00,,BKN200,0.00,VWS V14.01,2013-05-04 13:34:00,
2013-05-04 09:39:00,58.7,39.1,30.12,ESE,109,14.0,15.0,48,0.00,,BKN200,0.00,VWS V14.01,2013-05-04 13:39:00,
2013-05-04 09:44:00,58.7,38.5,30.12,East,84,15.0,15.0,47,0.00,,BKN200,0.00,VWS V14.01,2013-05-04 13:44:00,
2013-05-04 09:49:00,58.8,38.1,30.12,East,85,13.0,16.0,46,0.00,,BKN200,0.00,VWS V14.01,2013-05-04 13:49:00,
2013-05-04 09:54:00,59.2,39.5,30.12,ESE,114,13.0,15.0,48,0.00,,BKN200,0.00,VWS V14.01,2013-05-04 13:54:00,
2013-05-04 09:59:00,59.4,39.2,30.12,East,92,9.0,16.0,47,0.00,,BKN200,0.00,VWS V14.01,2013-05-04 13:59:00,
2013-05-04 10:04:00,59.5,38.7,30.11,East,101,11.0,14.0,46,0.00,,BKN200,0.00,VWS V14.01,2013-05-04 14:04:00,
2013-05-04 10:09:00,60.0,39.7,30.11,ENE,76,13.0,14.0,47,0.00,,BKN200,0.00,VWS V14.01,2013-05-04 14:09:00,
2013-05-04 10:14:00,60.0,38.6,30.11,East,101,17.0,18.0,45,0.00,,BKN200,0.00,VWS V14.01,2013-05-04 14:14:00,
2013-05-04 10:19:00,60.3,38.9,30.11,East,79,11.0,14.0,45,0.00,,BKN200,0.00,VWS V14.01,2013-05-04 14:19:00,
2013-05-04 10:24:00,61.0,40.7,30.11,East,101,8.0,8.0,47,0.00,,BKN200,0.00,VWS V14.01,2013-05-04 14:24:00,
2013-05-04 10:29:00,61.5,40.0,30.11,SE,145,10.0,12.0,45,0.00,,BKN200,0.00,VWS V14.01,2013-05-04 14:29:00,
2013-05-04 10:34:00,61.3,39.8,30.11,ESE,120,5.0,11.0,45,0.00,,BKN200,0.00,VWS V14.01,2013-05-04 14:34:00,
2013-05-04 10:39:00,61.6,39.5,30.11,SE,141,9.0,13.0,44,0.00,,BKN200,0.00,VWS V14.01,2013-05-04 14:39:00,
2013-05-04 10:44:00,61.4,39.3,30.11,ESE,105,9.0,17.0,44,0.00,,BKN200,0.00,VWS V14.01,2013-05-04 14:44:00,
2013-05-04 10:49:00,61.6,39.5,30.11,ESE,115,9.0,12.0,44,0.00,,BKN200,0.00,VWS V14.01,2013-05-04 14:49:00,
2013-05-04 10:54:00,61.6,39.5,30.11,ESE,110,5.0,12.0,44,0.00,,BKN200,0.00,VWS V14.01,2013-05-04 14:54:00,
2013-05-04 10:59:00,62.0,41.0,30.11,ENE,58,9.0,12.0,46,0.00,,BKN200,0.00,VWS V14.01,2013-05-04 14:59:00,
2013-05-04 11:04:00,62.2,41.7,30.10,ESE,119,7.0,10.0,47,0.00,,BKN200,0.00,VWS V14.01,2013-05-04 15:04:00,
2013-05-04 11:09:00,62.8,41.2,30.10,ESE,102,5.0,14.0,45,0.00,,BKN200,0.00,VWS V14.01,2013-05-04 15:09:00,
2013-05-04 11:14:00,63.5,42.4,30.10,ESE,113,12.0,15.0,46,0.00,,BKN200,0.00,VWS V14.01,2013-05-04 15:14:00,
2013-05-04 11:19:00,63.8,42.6,30.10,ESE,103,4.0,13.0,46,0.00,,BKN200,0.00,VWS V14.01,2013-05-04 15:19:00,
2013-05-04 11:24:00,64.0,41.7,30.10,East,101,13.0,15.0,44,0.00,,BKN200,0.00,VWS V14.01,2013-05-04 15:24:00,
2013-05-04 11:29:00,64.2,42.4,30.10,ESE,121,12.0,16.0,45,0.00,,BKN200,0.00,VWS V14.01,2013-05-04 15:29:00,
2013-05-04 11:34:00,64.1,42.9,30.10,ESE,111,15.0,15.0,46,0.00,,BKN200,0.00,VWS V14.01,2013-05-04 15:34:00,
2013-05-04 11:39:00,64.2,41.8,30.10,ESE,114,7.0,13.0,44,0.00,,BKN200,0.00,VWS V14.01,2013-05-04 15:39:00,
2013-05-04 11:44:00,64.9,44.2,30.10,ESE,104,8.0,11.0,47,0.00,,BKN200,0.00,VWS V14.01,2013-05-04 15:44:00,
2013-05-04 11:49:00,64.7,42.9,30.10,East,94,12.0,12.0,45,0.00,,BKN200,0.00,VWS V14.01,2013-05-04 15:49:00,
2013-05-04 11:54:00,65.0,43.7,30.09,ESE,118,9.0,17.0,46,0.00,,BKN200,0.00,VWS V14.01,2013-05-04 15:54:00,
2013-05-04 11:59:00,65.5,43.0,30.09,ESE,111,6.0,13.0,44,0.00,,BKN200,0.00,VWS V14.01,2013-05-04 15:59:00,
2013-05-04 12:04:00,66.0,41.7,30.09,ESE,106,10.0,13.0,41,0.00,,BKN200,0.00,VWS V14.01,2013-05-04 16:04:00,
2013-05-04 12:09:00,66.2,43.7,30.09,ESE,103,7.0,11.0,44,0.00,,BKN200,0.00,VWS V14.01,2013-05-04 16:09:00,
2013-05-04 12:14:00,66.1,42.4,30.09,SE,139,6.0,13.0,42,0.00,,BKN200,0.00,VWS V14.01,2013-05-04 16:14:00,
2013-05-04 12:19:00,65.8,43.3,30.09,East,89,15.0,15.0,44,0.00,,BKN200,0.00,VWS V14.01,2013-05-04 16:19:00,
2013-05-04 12:24:00,66.2,43.7,30.08,ENE,76,15.0,17.0,44,0.00,,BKN200,0.00,VWS V14.01,2013-05-04 16:24:00,
2013-05-04 12:29:00,66.5,43.3,30.08,ESE,113,9.0,13.0,43,0.00,,BKN200,0.00,VWS V14.01,2013-05-04 16:29:00,
2013-05-04 12:34:00,66.5,43.9,30.08,NE,53,9.0,16.0,44,0.00,,BKN200,0.00,VWS V14.01,2013-05-04 16:34:00,
2013-05-04 12:39:00,66.0,43.5,30.08,ESE,111,11.0,14.0,44,0.00,,BKN200,0.00,VWS V14.01,2013-05-04 16:39:00,
2013-05-04 12:44:00,66.6,45.8,30.08,ESE,120,6.0,11.0,47,0.00,,BKN200,0.00,VWS V14.01,2013-05-04 16:44:00,
2013-05-04 12:49:00,67.0,43.8,30.08,ENE,66,9.0,15.0,43,0.00,,BKN200,0.00,VWS V14.01,2013-05-04 16:49:00,
2013-05-04 12:54:00,66.7,44.1,30.08,ESE,114,11.0,16.0,44,0.00,,BKN200,0.00,VWS V14.01,2013-05-04 16:54:00,
2013-05-04 12:59:00,66.6,42.8,30.08,SE,136,4.0,18.0,42,0.00,,BKN200,0.00,VWS V14.01,2013-05-04 16:59:00,
2013-05-04 13:04:00,67.0,43.2,30.07,East,89,10.0,14.0,42,0.00,,BKN160,0.00,VWS V14.01,2013-05-04 17:04:00,
2013-05-04 13:09:00,67.5,43.6,30.07,SE,141,8.0,11.0,42,0.00,,BKN160,0.00,VWS V14.01,2013-05-04 17:09:00,
2013-05-04 13:14:00,67.4,43.5,30.07,East,98,15.0,18.0,42,0.00,,BKN160,0.00,VWS V14.01,2013-05-04 17:14:00,
2013-05-04 13:19:00,67.8,44.5,30.07,ESE,107,14.0,16.0,43,0.00,,BKN160,0.00,VWS V14.01,2013-05-04 17:19:00,
2013-05-04 13:24:00,67.6,43.7,30.07,East,94,13.0,16.0,42,0.00,,BKN160,0.00,VWS V14.01,2013-05-04 17:24:00,
2013-05-04 13:29:00,67.5,44.2,30.06,ENE,78,9.0,17.0,43,0.00,,BKN160,0.00,VWS V14.01,2013-05-04 17:29:00,
2013-05-04 13:34:00,67.5,43.6,30.07,ESE,103,11.0,17.0,42,0.00,,BKN160,0.00,VWS V14.01,2013-05-04 17:34:00,
2013-05-04 13:39:00,67.8,43.9,30.07,East,100,10.0,17.0,42,0.00,,BKN160,0.00,VWS V14.01,2013-05-04 17:39:00,
2013-05-04 13:44:00,68.0,44.1,30.06,ESE,111,9.0,15.0,42,0.00,,BKN160,0.00,VWS V14.01,2013-05-04 17:44:00,
2013-05-04 13:49:00,67.8,43.9,30.06,ENE,75,14.0,19.0,42,0.00,,BKN160,0.00,VWS V14.01,2013-05-04 17:49:00,
2013-05-04 13:54:00,67.9,44.0,30.06,ESE,105,18.0,18.0,42,0.00,,BKN160,0.00,VWS V14.01,2013-05-04 17:54:00,
2013-05-04 13:58:00,68.3,43.1,30.06,SE,141,8.0,14.0,40,0.00,,BKN160,0.00,VWS V14.01,2013-05-04 17:58:00,
2013-05-04 14:03:00,68.3,44.3,30.06,SE,132,13.0,13.0,42,0.00,,BKN160,0.00,VWS V14.01,2013-05-04 18:03:00,
2013-05-04 14:08:00,68.5,43.9,30.06,ESE,121,7.0,19.0,41,0.00,,BKN160,0.00,VWS V14.01,2013-05-04 18:08:00,
2013-05-04 14:13:00,68.5,43.9,30.06,East,92,14.0,20.0,41,0.00,,BKN160,0.00,VWS V14.01,2013-05-04 18:13:00,
2013-05-04 14:18:00,68.6,44.6,30.06,East,84,16.0,16.0,42,0.00,,BKN160,0.00,VWS V14.01,2013-05-04 18:18:00,
2013-05-04 14:23:00,69.0,45.6,30.05,SE,137,10.0,14.0,43,0.00,,BKN160,0.00,VWS V14.01,2013-05-04 18:23:00,
2013-05-04 14:28:00,68.8,45.4,30.05,ENE,57,11.0,13.0,43,0.00,,BKN160,0.00,VWS V14.01,2013-05-04 18:28:00,
2013-05-04 14:33:00,68.9,46.1,30.05,East,90,17.0,17.0,44,0.00,,BKN160,0.00,VWS V14.01,2013-05-04 18:33:00,
2013-05-04 14:38:00,68.9,44.9,30.05,East,101,18.0,18.0,42,0.00,,BKN160,0.00,VWS V14.01,2013-05-04 18:38:00,
2013-05-04 14:43:00,68.6,45.2,30.05,ENE,72,9.0,19.0,43,0.00,,BKN160,0.00,VWS V14.01,2013-05-04 18:43:00,
2013-05-04 14:48:00,68.5,44.5,30.05,ESE,104,12.0,15.0,42,0.00,,BKN160,0.00,VWS V14.01,2013-05-04 18:48:00,
2013-05-04 14:53:00,68.3,44.3,30.05,ESE,111,14.0,19.0,42,0.00,,BKN160,0.00,VWS V14.01,2013-05-04 18:53:00,
2013-05-04 14:58:00,68.4,45.0,30.05,ENE,69,11.0,14.0,43,0.00,,BKN160,0.00,VWS V14.01,2013-05-04 18:58:00,
2013-05-04 15:03:00,68.3,44.3,30.05,ESE,118,12.0,19.0,42,0.00,,CLR,0.00,VWS V14.01,2013-05-04 19:03:00,
2013-05-04 15:08:00,68.5,44.5,30.05,East,100,12.0,20.0,42,0.00,,CLR,0.00,VWS V14.01,2013-05-04 19:08:00,
2013-05-04 15:13:00,68.4,45.0,30.04,ESE,108,6.0,16.0,43,0.00,,CLR,0.00,VWS V14.01,2013-05-04 19:13:00,
2013-05-04 15:18:00,68.6,45.2,30.04,ESE,121,9.0,11.0,43,0.00,,CLR,0.00,VWS V14.01,2013-05-04 19:18:00,
2013-05-04 15:23:00,68.6,43.3,30.04,East,86,9.0,16.0,40,0.00,,CLR,0.00,VWS V14.01,2013-05-04 19:23:00,
2013-05-04 15:28:00,69.1,45.1,30.04,ESE,122,7.0,14.0,42,0.00,,CLR,0.00,VWS V14.01,2013-05-04 19:28:00,
2013-05-04 15:33:00,69.5,44.8,30.04,SE,134,5.0,16.0,41,0.00,,CLR,0.00,VWS V14.01,2013-05-04 19:33:00,
2013-05-04 15:38:00,69.8,45.7,30.04,ESE,105,12.0,17.0,42,0.00,,CLR,0.00,VWS V14.01,2013-05-04 19:38:00,
2013-05-04 15:43:00,69.9,45.8,30.03,SE,129,5.0,15.0,42,0.00,,CLR,0.00,VWS V14.01,2013-05-04 19:43:00,
2013-05-04 15:48:00,70.1,45.3,30.03,East,89,10.0,13.0,41,0.00,,CLR,0.00,VWS V14.01,2013-05-04 19:48:00,
2013-05-04 15:53:00,70.2,45.4,30.03,ESE,107,8.0,18.0,41,0.00,,CLR,0.00,VWS V14.01,2013-05-04 19:53:00,
2013-05-04 15:58:00,69.9,45.8,30.03,SE,140,5.0,14.0,42,0.00,,CLR,0.00,VWS V14.01,2013-05-04 19:58:00,
2013-05-04 16:03:00,70.0,45.9,30.03,ESE,117,8.0,15.0,42,0.00,,BKN160,0.00,VWS V14.01,2013-05-04 20:03:00,
2013-05-04 16:08:00,70.1,46.0,30.03,ENE,77,16.0,17.0,42,0.00,,BKN160,0.00,VWS V14.01,2013-05-04 20:08:00,
2013-05-04 16:13:00,70.1,46.6,30.03,ESE,110,6.0,12.0,43,0.00,,BKN160,0.00,VWS V14.01,2013-05-04 20:13:00,
2013-05-04 16:18:00,70.1,46.6,30.03,ESE,121,7.0,17.0,43,0.00,,BKN160,0.00,VWS V14.01,2013-05-04 20:18:00,
2013-05-04 16:23:00,69.9,46.4,30.03,SE,132,13.0,13.0,43,0.00,,BKN160,0.00,VWS V14.01,2013-05-04 20:23:00,
2013-05-04 16:28:00,70.2,46.1,30.03,SE,124,8.0,12.0,42,0.00,,BKN160,0.00,VWS V14.01,2013-05-04 20:28:00,
2013-05-04 16:33:00,70.4,46.2,30.03,ESE,115,8.0,10.0,42,0.00,,BKN160,0.00,VWS V14.01,2013-05-04 20:33:00,
2013-05-04 16:38:00,70.4,46.2,30.02,East,82,13.0,21.0,42,0.00,,BKN160,0.00,VWS V14.01,2013-05-04 20:38:00,
2013-05-04 16:43:00,70.3,46.2,30.02,East,96,13.0,15.0,42,0.00,,BKN160,0.00,VWS V14.01,2013-05-04 20:43:00,
2013-05-04 16:48:00,70.0,45.9,30.02,ESE,113,12.0,13.0,42,0.00,,BKN160,0.00,VWS V14.01,2013-05-04 20:48:00,
2013-05-04 16:53:00,70.0,46.5,30.02,East,100,10.0,12.0,43,0.00,,BKN160,0.00,VWS V14.01,2013-05-04 20:53:00,
2013-05-04 16:58:00,70.1,46.0,30.02,ESE,105,12.0,18.0,42,0.00,,BKN160,0.00,VWS V14.01,2013-05-04 20:58:00,
2013-05-04 17:03:00,70.3,45.5,30.02,ENE,72,14.0,20.0,41,0.00,,OVC200,0.00,VWS V14.01,2013-05-04 21:03:00,
2013-05-04 17:08:00,70.3,46.2,30.02,East,95,14.0,17.0,42,0.00,,OVC200,0.00,VWS V14.01,2013-05-04 21:08:00,
2013-05-04 17:13:00,70.3,46.8,30.02,East,93,17.0,17.0,43,0.00,,OVC200,0.00,VWS V14.01,2013-05-04 21:13:00,
2013-05-04 17:18:00,70.2,46.1,30.02,East,96,9.0,15.0,42,0.00,,OVC200,0.00,VWS V14.01,2013-05-04 21:18:00,
2013-05-04 17:23:00,70.5,46.3,30.02,East,86,9.0,16.0,42,0.00,,OVC200,0.00,VWS V14.01,2013-05-04 21:23:00,
2013-05-04 17:28:00,70.7,46.5,30.02,ESE,120,6.0,12.0,42,0.00,,OVC200,0.00,VWS V14.01,2013-05-04 21:28:00,
2013-05-04 17:33:00,71.0,46.8,30.02,SE,145,4.0,12.0,42,0.00,,OVC200,0.00,VWS V14.01,2013-05-04 21:33:00,
2013-05-04 17:38:00,71.1,46.2,30.02,ESE,122,12.0,12.0,41,0.00,,OVC200,0.00,VWS V14.01,2013-05-04 21:38:00,
2013-05-04 17:43:00,71.4,47.1,30.02,SE,141,3.0,7.0,42,0.00,,OVC200,0.00,VWS V14.01,2013-05-04 21:43:00,
2013-05-04 17:48:00,71.4,46.5,30.02,ESE,103,8.0,8.0,41,0.00,,OVC200,0.00,VWS V14.01,2013-05-04 21:48:00,
2013-05-04 17:53:00,71.1,46.9,30.02,ESE,123,7.0,15.0,42,0.00,,OVC200,0.00,VWS V14.01,2013-05-04 21:53:00,
2013-05-04 17:58:00,70.9,46.0,30.02,ESE,120,6.0,11.0,41,0.00,,OVC200,0.00,VWS V14.01,2013-05-04 21:58:00,
2013-05-04 18:03:00,70.7,45.9,30.02,SE,133,10.0,14.0,41,0.00,,OVC200,0.00,VWS V14.01,2013-05-04 22:03:00,
2013-05-04 18:08:00,70.5,46.3,30.02,ESE,115,7.0,9.0,42,0.00,,OVC200,0.00,VWS V14.01,2013-05-04 22:08:00,
2013-05-04 18:13:00,70.4,46.2,30.02,ESE,117,7.0,13.0,42,0.00,,OVC200,0.00,VWS V14.01,2013-05-04 22:13:00,
2013-05-04 18:18:00,70.3,46.2,30.02,ESE,110,5.0,9.0,42,0.00,,OVC200,0.00,VWS V14.01,2013-05-04 22:18:00,
2013-05-04 18:23:00,70.2,46.7,30.02,SE,126,5.0,11.0,43,0.00,,OVC200,0.00,VWS V14.01,2013-05-04 22:23:00,
2013-05-04 18:28:00,70.1,46.6,30.02,ESE,122,6.0,9.0,43,0.00,,OVC200,0.00,VWS V14.01,2013-05-04 22:28:00,
2013-05-04 18:33:00,70.1,47.2,30.02,SE,138,8.0,9.0,44,0.00,,OVC200,0.00,VWS V14.01,2013-05-04 22:33:00,
2013-05-04 18:38:00,70.1,47.2,30.02,ESE,122,6.0,8.0,44,0.00,,OVC200,0.00,VWS V14.01,2013-05-04 22:38:00,
2013-05-04 18:43:00,70.1,47.2,30.02,East,86,3.0,8.0,44,0.00,,OVC200,0.00,VWS V14.01,2013-05-04 22:43:00,
2013-05-04 18:48:00,70.1,47.2,30.02,ESE,109,7.0,8.0,44,0.00,,OVC200,0.00,VWS V14.01,2013-05-04 22:48:00,
2013-05-04 18:53:00,70.1,47.2,30.02,ENE,75,4.0,12.0,44,0.00,,OVC200,0.00,VWS V14.01,2013-05-04 22:53:00,
2013-05-04 18:58:00,70.1,47.2,30.02,ESE,119,5.0,6.0,44,0.00,,OVC200,0.00,VWS V14.01,2013-05-04 22:58:00,
2013-05-04 19:03:00,70.1,47.2,30.02,ESE,117,4.0,7.0,44,0.00,,OVC200,0.00,VWS V14.01,2013-05-04 23:03:00,
2013-05-04 19:08:00,70.1,47.2,30.02,East,89,6.0,8.0,44,0.00,,OVC200,0.00,VWS V14.01,2013-05-04 23:08:00,
2013-05-04 19:13:00,70.0,47.1,30.03,ESE,119,6.0,9.0,44,0.00,,OVC200,0.00,VWS V14.01,2013-05-04 23:13:00,
2013-05-04 19:18:00,69.9,47.6,30.03,ESE,114,4.0,6.0,45,0.00,,OVC200,0.00,VWS V14.01,2013-05-04 23:18:00,
2013-05-04 19:23:00,69.9,47.0,30.03,ESE,103,7.0,8.0,44,0.00,,OVC200,0.00,VWS V14.01,2013-05-04 23:23:00,
2013-05-04 19:28:00,69.8,46.9,30.03,East,88,5.0,7.0,44,0.00,,OVC200,0.00,VWS V14.01,2013-05-04 23:28:00,
2013-05-04 19:33:00,69.6,47.9,30.03,ESE,103,4.0,4.0,46,0.00,,OVC200,0.00,VWS V14.01,2013-05-04 23:33:00,
2013-05-04 19:38:00,69.5,47.2,30.03,East,96,1.0,4.0,45,0.00,,OVC200,0.00,VWS V14.01,2013-05-04 23:38:00,
2013-05-04 19:43:00,69.3,47.1,30.03,East,100,3.0,3.0,45,0.00,,OVC200,0.00,VWS V14.01,2013-05-04 23:43:00,
2013-05-04 19:48:00,69.2,46.4,30.03,ESE,104,2.0,4.0,44,0.00,,OVC200,0.00,VWS V14.01,2013-05-04 23:48:00,
2013-05-04 19:53:00,69.0,46.2,30.03,ESE,108,3.0,4.0,44,0.00,,OVC200,0.00,VWS V14.01,2013-05-04 23:53:00,
2013-05-04 19:58:00,68.8,46.0,30.03,ESE,105,3.0,4.0,44,0.00,,OVC200,0.00,VWS V14.01,2013-05-04 23:58:00,
2013-05-04 20:03:00,68.5,45.1,30.03,East,93,2.0,5.0,43,0.00,,OVC200,0.00,VWS V14.01,2013-05-05 00:03:00,
2013-05-04 20:08:00,68.3,45.0,30.04,East,91,5.0,5.0,43,0.00,,OVC200,0.00,VWS V14.01,2013-05-05 00:08:00,
2013-05-04 20:13:00,68.1,45.4,30.04,East,94,5.0,5.0,44,0.00,,OVC200,0.00,VWS V14.01,2013-05-05 00:13:00,
2013-05-04 20:18:00,67.9,44.0,30.04,East,100,6.0,8.0,42,0.00,,OVC200,0.00,VWS V14.01,2013-05-05 00:18:00,
2013-05-04 20:23:00,67.8,42.6,30.04,ENE,71,6.0,6.0,40,0.00,,OVC200,0.00,VWS V14.01,2013-05-05 00:23:00,
2013-05-04 20:28:00,67.7,42.5,30.04,ENE,75,7.0,7.0,40,0.00,,OVC200,0.00,VWS V14.01,2013-05-05 00:28:00,
2013-05-04 20:33:00,67.4,42.9,30.04,SE,133,3.0,4.0,41,0.00,,OVC200,0.00,VWS V14.01,2013-05-05 00:33:00,
2013-05-04 20:38:00,66.9,43.1,30.04,ESE,113,1.0,3.0,42,0.00,,OVC200,0.00,VWS V14.01,2013-05-05 00:38:00,
2013-05-04 20:43:00,66.4,43.2,30.04,ESE,105,2.0,4.0,43,0.00,,OVC200,0.00,VWS V14.01,2013-05-05 00:43:00,
2013-05-04 20:48:00,65.9,42.8,30.05,ESE,117,1.0,2.0,43,0.00,,OVC200,0.00,VWS V14.01,2013-05-05 00:48:00,
2013-05-04 20:53:00,65.7,42.6,30.05,ESE,119,2.0,2.0,43,0.00,,OVC200,0.00,VWS V14.01,2013-05-05 00:53:00,
2013-05-04 20:58:00,65.5,43.0,30.05,ESE,120,2.0,3.0,44,0.00,,OVC200,0.00,VWS V14.01,2013-05-05 00:58:00,
2013-05-04 21:03:00,65.3,42.8,30.05,East,98,1.0,2.0,44,0.00,,OVC200,0.00,VWS V14.01,2013-05-05 01:03:00,
2013-05-04 21:08:00,65.1,42.1,30.05,ESE,103,3.0,4.0,43,0.00,,OVC200,0.00,VWS V14.01,2013-05-05 01:08:00,
2013-05-04 21:13:00,65.0,42.6,30.05,ESE,103,1.0,2.0,44,0.00,,OVC200,0.00,VWS V14.01,2013-05-05 01:13:00,
2013-05-04 21:18:00,64.9,42.5,30.06,East,90,2.0,4.0,44,0.00,,OVC200,0.00,VWS V14.01,2013-05-05 01:18:00,
2013-05-04 21:23:00,64.7,42.3,30.05,East,79,2.0,2.0,44,0.00,,OVC200,0.00,VWS V14.01,2013-05-05 01:23:00,
2013-05-04 21:28:00,64.4,42.6,30.05,East,79,3.0,3.0,45,0.00,,OVC200,0.00,VWS V14.01,2013-05-05 01:28:00,
2013-05-04 21:33:00,64.0,42.3,30.05,East,82,2.0,3.0,45,0.00,,OVC200,0.00,VWS V14.01,2013-05-05 01:33:00,
2013-05-04 21:38:00,63.5,42.4,30.05,East,82,2.0,3.0,46,0.00,,OVC200,0.00,VWS V14.01,2013-05-05 01:38:00,
2013-05-04 21:43:00,63.1,42.6,30.05,East,94,2.0,4.0,47,0.00,,OVC200,0.00,VWS V14.01,2013-05-05 01:43:00,
2013-05-04 21:48:00,62.6,42.7,30.05,ENE,65,2.0,2.0,48,0.00,,OVC200,0.00,VWS V14.01,2013-05-05 01:48:00,
2013-05-04 21:53:00,62.2,42.3,30.05,ENE,72,3.0,4.0,48,0.00,,OVC200,0.00,VWS V14.01,2013-05-05 01:53:00,
2013-05-04 21:58:00,61.9,42.0,30.06,East,86,5.0,5.0,48,0.00,,OVC200,0.00,VWS V14.01,2013-05-05 01:58:00,
2013-05-04 22:03:00,61.8,41.4,30.06,ESE,105,1.0,3.0,47,0.00,,SCT250,0.00,VWS V14.01,2013-05-05 02:03:00,
2013-05-04 22:08:00,62.0,41.0,30.06,ENE,70,1.0,3.0,46,0.00,,SCT250,0.00,VWS V14.01,2013-05-05 02:08:00,
2013-05-04 22:13:00,62.1,41.1,30.06,ESE,111,2.0,3.0,46,0.00,,SCT250,0.00,VWS V14.01,2013-05-05 02:13:00,
2013-05-04 22:18:00,62.1,41.1,30.06,ENE,78,2.0,2.0,46,0.00,,SCT250,0.00,VWS V14.01,2013-05-05 02:18:00,
2013-05-04 22:23:00,62.0,41.0,30.06,East,101,2.0,3.0,46,0.00,,SCT250,0.00,VWS V14.01,2013-05-05 02:23:00,
2013-05-04 22:28:00,61.7,40.7,30.06,East,97,1.0,2.0,46,0.00,,SCT250,0.00,VWS V14.01,2013-05-05 02:28:00,
2013-05-04 22:33:00,61.5,40.5,30.06,ESE,102,1.0,2.0,46,0.00,,SCT250,0.00,VWS V14.01,2013-05-05 02:33:00,
2013-05-04 22:38:00,61.3,40.4,30.06,East,96,2.0,3.0,46,0.00,,SCT250,0.00,VWS V14.01,2013-05-05 02:38:00,
2013-05-04 22:43:00,61.3,40.4,30.06,ESE,108,2.0,3.0,46,0.00,,SCT250,0.00,VWS V14.01,2013-05-05 02:43:00,
2013-05-04 22:48:00,61.2,40.8,30.06,ENE,76,3.0,6.0,47,0.00,,SCT250,0.00,VWS V14.01,2013-05-05 02:48:00,
2013-05-04 22:53:00,61.1,40.7,30.06,ENE,60,3.0,3.0,47,0.00,,SCT250,0.00,VWS V14.01,2013-05-05 02:53:00,
2013-05-04 22:58:00,61.0,40.7,30.06,ENE,78,6.0,7.0,47,0.00,,SCT250,0.00,VWS V14.01,2013-05-05 02:58:00,
2013-05-04 23:03:00,60.8,41.0,30.06,East,86,2.0,6.0,48,0.00,,SCT250,0.00,VWS V14.01,2013-05-05 03:03:00,
2013-05-04 23:08:00,61.0,41.2,30.06,East,81,7.0,7.0,48,0.00,,SCT250,0.00,VWS V14.01,2013-05-05 03:08:00,
2013-05-04 23:13:00,61.1,41.3,30.06,ENE,75,4.0,4.0,48,0.00,,SCT250,0.00,VWS V14.01,2013-05-05 03:13:00,
2013-05-04 23:18:00,60.9,41.6,30.06,ENE,72,3.0,4.0,49,0.00,,SCT250,0.00,VWS V14.01,2013-05-05 03:18:00,
2013-05-04 23:23:00,60.6,41.4,30.06,ENE,77,4.0,5.0,49,0.00,,SCT250,0.00,VWS V14.01,2013-05-05 03:23:00,
2013-05-04 23:28:00,60.4,41.7,30.06,East,92,2.0,6.0,50,0.00,,SCT250,0.00,VWS V14.01,2013-05-05 03:28:00,
2013-05-04 23:33:00,60.3,41.6,30.06,East,93,2.0,6.0,50,0.00,,SCT250,0.00,VWS V14.01,2013-05-05 03:33:00,
2013-05-04 23:38:00,60.1,41.9,30.06,East,86,5.0,7.0,51,0.00,,SCT250,0.00,VWS V14.01,2013-05-05 03:38:00,
2013-05-04 23:43:00,60.0,41.8,30.06,East,79,5.0,5.0,51,0.00,,SCT250,0.00,VWS V14.01,2013-05-05 03:43:00,
2013-05-04 23:48:00,60.0,41.8,30.06,ENE,70,4.0,8.0,51,0.00,,SCT250,0.00,VWS V14.01,2013-05-05 03:48:00,
2013-05-04 23:53:00,60.0,42.3,30.06,East,79,5.0,8.0,52,0.00,,SCT250,0.00,VWS V14.01,2013-05-05 03:53:00,
2013-05-04 23:58:00,59.9,42.2,30.06,ENE,75,6.0,7.0,52,0.00,,SCT250,0.00,VWS V14.01,2013-05-05 03:58:00,